Home   Weather   Luhansk   Past weeks

Flag for Ukraine Past Weather in Luhansk, Ukraine — Yesterday and Last 2 Weeks

Now
27 °F

Clear.


Feels Like: 15 °F
Forecast: 21 / 29 °F
Wind: 15 mph from West

Location: Rostov-Na-Donu

Current Time: Jan 23, 2017 at 7:59:30 am

Latest Report: Jan 23, 2017 at 7:00 am


Visibility: 5 mi

Pressure: 30.33 "Hg

Humidity: 86%

Dew Point: 23 °F

Location of LuhanskLocation

Past Weather in Luhansk — Graph

°F

Luhansk Temperature Yesterday

Maximum temperature yesterday: 34 °F (at 2:00 pm)
Minimum temperature yesterday: 25 °F (at 10:00 pm)
Average temperature yesterday: 30 °F

High & Low Weather Summary for the Past Weeks

 TemperatureHumidityPressure
High45 °F (Jan 12, 1:30 pm)100% (Jan 8, 6:00 am)30.60 "Hg (Jan 8, 6:00 am)
Low18 °F (Jan 20, 6:00 am)60% (Jan 22, 2:00 pm)29.77 "Hg (Jan 12, 11:30 pm)
Average30 °F87%30.20 "Hg
* Reported Jan 8 6:00 am — Jan 23 6:30 am, Luhansk, Weather by CustomWeather, © 2017

Note: Actual official high and low records may vary slightly from our data, if they occured in-between our weather recording intervals... More about our weather records

Advertising

Luhansk Weather History for the Previous 24 Hours

Scroll right to see more
 ConditionsComfort  
Time TempWeatherWind HumidityBarometerVisibility
6:30 am
Mon, Jan 23
28 °FClear.13 mph80%30.33 "Hg5 mi
6:00 am28 °FClear.13 mph74%30.33 "Hg5 mi
5:30 am27 °FClear.13 mph80%30.33 "Hg5 mi
5:00 am27 °FClear.15 mph80%30.33 "Hg5 mi
4:30 am27 °FClear.13 mph80%30.33 "Hg5 mi
4:00 am27 °FClear.13 mph80%30.33 "Hg5 mi
3:30 am27 °FClear.13 mph74%30.33 "Hg5 mi
3:00 am27 °FClear.13 mph74%30.36 "Hg5 mi
2:30 am25 °FClear.13 mph80%30.36 "Hg5 mi
2:00 am25 °FClear.13 mph74%30.36 "Hg5 mi
1:30 am25 °FClear.13 mph74%30.36 "Hg5 mi
1:00 am25 °FClear.10 mph74%30.36 "Hg5 mi
12:30 am25 °FClear.10 mph74%30.36 "Hg5 mi
12:00 am25 °FClear.10 mph74%30.36 "Hg5 mi
11:30 pm
Sun, Jan 22
25 °FClear.8 mph74%30.39 "Hg5 mi
11:00 pm25 °FClear.8 mph74%30.39 "Hg5 mi
10:30 pm25 °FClear.8 mph74%30.39 "Hg5 mi
10:00 pm25 °FClear.8 mph69%30.39 "Hg5 mi
9:30 pm27 °FClear.6 mph64%30.39 "Hg5 mi
9:00 pm27 °FClear.6 mph64%30.39 "Hg5 mi
8:30 pm27 °FClear.8 mph64%30.39 "Hg5 mi
8:00 pm27 °FClear.8 mph64%30.39 "Hg5 mi
7:30 pm28 °FClear.8 mph64%30.39 "Hg5 mi
7:00 pm28 °FClear.6 mph69%30.39 "Hg5 mi
6:30 pm28 °FClear.6 mph69%30.39 "Hg5 mi
6:00 pm30 °FClear.6 mph64%30.39 "Hg5 mi
5:30 pm30 °FPassing clouds.6 mph64%30.39 "Hg5 mi
5:00 pm30 °FPassing clouds.8 mph64%30.39 "HgN/A
4:30 pm32 °FScattered clouds.10 mph60%30.39 "HgN/A
4:00 pm32 °FScattered clouds.8 mph60%30.39 "HgN/A
3:30 pm32 °FScattered clouds.8 mph60%30.39 "HgN/A
3:00 pm32 °FScattered clouds.8 mph60%30.39 "HgN/A
2:30 pm32 °FScattered clouds.8 mph60%30.36 "HgN/A
2:00 pm34 °FScattered clouds.6 mph60%30.36 "HgN/A
1:30 pm32 °FScattered clouds.6 mph64%30.36 "HgN/A
1:00 pm32 °FPassing clouds.8 mph64%30.36 "HgN/A
12:30 pm32 °FPassing clouds.8 mph64%30.36 "HgN/A
12:00 pm32 °FPassing clouds.3 mph69%30.36 "HgN/A
11:30 am30 °FPassing clouds.6 mph75%30.36 "HgN/A
11:00 am30 °FPassing clouds.6 mph69%30.36 "HgN/A
10:30 am30 °FPassing clouds.6 mph75%30.36 "HgN/A
10:00 am30 °FPassing clouds.8 mph69%30.33 "HgN/A
9:30 am28 °FPassing clouds.6 mph74%30.33 "HgN/A
9:00 am28 °FSunny.8 mph74%30.30 "Hg10 mi
8:30 am28 °FSunny.8 mph74%30.30 "Hg10 mi
8:00 am28 °FPassing clouds.8 mph74%30.27 "HgN/A
7:30 am28 °FPassing clouds.8 mph80%30.24 "Hg5 mi
7:00 am30 °FPassing clouds.8 mph80%30.24 "Hg5 mi
Weather by CustomWeather, © 2017

See weather overviewHow to use our weather pages